Total_Precipitation_Accumulation
1.74 1.76 1.76 1.68 1.69 1.70 1.78 1.84 1.87 1.67 1.42 1.20 1.05 0.94 1.02 1.04 1.27 1.18 1.00 1.01 0.94 0.82 0.74 0.70 0.80 0.95 1.15 1.25 1.36 1.46 1.56 1.57 1.49 1.39 1.39 1.42 1.46 1.59
1.49 1.54 1.59 1.60 1.66 1.67 1.74 1.80 1.78 1.72 1.55 1.32 1.15 1.08 1.12 1.02 1.14 1.04 1.09 1.22 1.04 0.89 0.80 0.75 0.77 0.86 0.94 0.96 0.94 0.88 0.89 0.93 0.94 0.99 1.01 1.07 1.17 1.33
1.17 1.20 1.27 1.32 1.42 1.49 1.60 1.66 1.70 1.67 1.43 1.28 1.16 1.17 1.19 1.18 1.15 1.07 1.12 1.16 1.05 0.95 0.81 0.72 0.74 0.81 0.88 0.91 0.89 0.82 0.73 0.69 0.72 0.78 0.84 0.86 0.86 0.89
0.96 1.01 1.04 1.07 1.19 1.28 1.35 1.43 1.56 1.61 1.50 1.34 1.23 1.18 1.08 1.10 1.25 1.30 1.28 1.20 1.20 1.25 1.12 0.95 0.87 0.85 0.83 0.88 0.92 0.88 0.79 0.71 0.64 0.65 0.71 0.77 0.83 0.86
0.66 0.71 0.78 0.85 1.01 1.10 1.13 1.23 1.39 1.42 1.49 1.40 1.34 1.28 1.13 1.06 1.23 1.26 1.32 1.49 1.41 1.48 1.59 1.38 1.12 0.97 0.86 0.89 0.94 0.92 0.84 0.77 0.66 0.61 0.68 0.74 0.74 0.78
0.56 0.58 0.61 0.64 0.74 0.86 0.97 1.17 1.34 1.46 1.50 1.44 1.43 1.40 1.32 1.23 1.29 1.39 1.46 1.56 1.60 1.43 1.44 1.41 1.35 1.24 1.04 0.93 0.98 1.02 0.99 0.92 0.84 0.76 0.72 0.73 0.72 0.71
0.50 0.56 0.59 0.57 0.59 0.63 0.63 0.81 1.04 1.28 1.38 1.43 1.46 1.49 1.44 1.40 1.35 1.47 1.55 1.67 1.76 1.74 1.61 1.43 1.39 1.24 1.12 1.04 1.00 1.04 1.08 1.06 1.01 0.90 0.83 0.82 0.79 0.78
0.54 0.59 0.57 0.53 0.58 0.58 0.56 0.58 0.70 0.87 1.05 1.17 1.26 1.31 1.37 1.48 1.59 1.60 1.57 1.63 1.69 1.71 1.58 1.59 1.53 1.41 1.24 1.07 1.07 1.08 1.11 1.13 1.10 1.02 0.92 0.83 0.81 0.84
0.51 0.65 0.72 0.66 0.65 0.68 0.70 0.63 0.58 0.59 0.75 0.96 1.08 1.13 1.20 1.29 1.53 1.58 1.58 1.61 1.53 1.57 1.43 1.47 1.43 1.31 1.23 1.19 1.19 1.12 1.13 1.09 1.09 1.04 1.00 0.94 0.87 0.88
0.47 0.60 0.85 0.88 0.77 0.72 0.77 0.87 0.79 0.63 0.63 0.69 0.85 0.99 1.04 1.19 1.52 1.74 1.68 1.47 1.42 1.49 1.39 1.40 1.34 1.22 1.15 1.14 1.19 1.09 1.08 1.04 1.00 1.01 0.99 0.96 0.92 0.92
0.40 0.52 0.69 0.84 0.77 0.73 0.73 0.80 0.84 0.74 0.68 0.69 0.67 0.75 0.88 1.06 1.32 1.58 1.69 1.64 1.47 1.42 1.30 1.22 1.24 1.23 1.25 1.21 1.15 1.14 1.07 1.07 1.06 1.05 1.07 1.05 1.02 1.07
0.26 0.42 0.57 0.57 0.53 0.60 0.72 0.82 0.91 0.76 0.66 0.75 0.74 0.77 0.80 0.99 1.31 1.52 1.65 1.63 1.51 1.46 1.35 1.26 1.26 1.27 1.45 1.40 1.23 1.17 1.11 1.13 1.15 1.13 1.11 1.14 1.20 1.17
0.20 0.34 0.42 0.38 0.38 0.47 0.59 0.71 0.85 0.71 0.73 0.87 0.92 0.89 0.96 1.01 1.13 1.28 1.48 1.59 1.50 1.34 1.26 1.37 1.44 1.36 1.34 1.35 1.32 1.24 1.16 1.09 1.08 1.10 1.11 1.12 1.17 1.15
0.22 0.28 0.31 0.28 0.30 0.34 0.39 0.50 0.61 0.69 0.78 0.91 0.98 0.95 0.91 0.97 1.03 1.07 1.18 1.30 1.29 1.24 1.14 1.11 1.20 1.19 1.14 1.05 1.05 1.12 1.14 1.11 1.07 1.07 1.09 1.20 1.18 1.19
0.20 0.25 0.26 0.27 0.31 0.32 0.33 0.40 0.55 0.74 0.91 0.92 0.85 0.82 0.86 0.91 0.92 1.03 1.11 1.15 1.18 1.18 1.08 0.93 0.94 1.01 1.00 0.95 0.88 0.89 0.99 1.05 1.01 0.98 0.98 1.03 1.05 1.09
0.21 0.23 0.23 0.28 0.32 0.31 0.37 0.48 0.65 0.85 0.93 0.84 0.79 0.70 0.71 0.84 0.90 0.92 0.96 0.98 1.03 1.08 1.01 0.94 0.90 0.89 0.91 0.88 0.84 0.81 0.81 0.87 0.92 0.94 0.94 0.92 0.92 0.94
0.20 0.27 0.31 0.37 0.42 0.49 0.60 0.69 0.71 0.74 0.79 0.72 0.75 0.69 0.65 0.72 0.76 0.77 0.79 0.75 0.76 0.77 0.80 0.81 0.84 0.82 0.80 0.83 0.85 0.80 0.80 0.76 0.76 0.86 0.93 0.92 0.87 0.88
0.24 0.32 0.40 0.48 0.54 0.63 0.69 0.69 0.69 0.70 0.72 0.69 0.67 0.67 0.61 0.61 0.63 0.64 0.68 0.70 0.74 0.71 0.65 0.62 0.64 0.70 0.75 0.81 0.80 0.75 0.77 0.79 0.80 0.82 0.83 0.82 0.77 0.76
0.22 0.33 0.52 0.58 0.56 0.62 0.66 0.65 0.56 0.50 0.51 0.53 0.52 0.50 0.48 0.49 0.52 0.54 0.56 0.62 0.65 0.61 0.61 0.62 0.61 0.64 0.66 0.62 0.58 0.57 0.67 0.71 0.74 0.77 0.79 0.77 0.72 0.69
0.17 0.24 0.37 0.42 0.45 0.51 0.51 0.49 0.42 0.35 0.35 0.35 0.35 0.37 0.38 0.40 0.41 0.44 0.45 0.45 0.51 0.53 0.52 0.53 0.55 0.57 0.60 0.60 0.55 0.48 0.49 0.58 0.61 0.65 0.67 0.71 0.74 0.84
0.19 0.24 0.28 0.32 0.32 0.32 0.33 0.33 0.32 0.33 0.32 0.32 0.33 0.34 0.35 0.37 0.36 0.35 0.39 0.43 0.43 0.43 0.45 0.45 0.45 0.53 0.57 0.63 0.60 0.47 0.42 0.49 0.55 0.56 0.62 0.71 0.71 0.66
0.20 0.21 0.22 0.22 0.23 0.23 0.25 0.28 0.30 0.33 0.34 0.34 0.33 0.34 0.37 0.38 0.38 0.37 0.36 0.37 0.39 0.42 0.42 0.43 0.46 0.49 0.55 0.61 0.57 0.50 0.46 0.47 0.53 0.62 0.63 0.64 0.62 0.58
0.21 0.20 0.21 0.22 0.23 0.26 0.29 0.31 0.31 0.34 0.36 0.36 0.37 0.38 0.40 0.41 0.41 0.40 0.39 0.39 0.40 0.43 0.46 0.48 0.49 0.52 0.54 0.56 0.56 0.53 0.51 0.51 0.53 0.55 0.55 0.58 0.57 0.54